Weather History for Crestview, FL

Change the Weather History Date:

Tuesday, January 15, 2013

  Actual Average Record
Temperature  
Mean Temperature 72 °F -  
Max Temperature 75 °F 58 °F 78 °F (1952)
Min Temperature 68 °F 33 °F 18 °F (1982)
Cooling Degree Days 7    
Growing Degree Days 22 (Base 50)    
Moisture  
Dew Point 68 °F    
Average Humidity 90    
Maximum Humidity 96    
Minimum Humidity 79    
Precipitation  
Precipitation 0.20 in - - ()
Sea Level Pressure  
Sea Level Pressure 30.02 in    
Wind  
Wind Speed 8 mph (South)    
Max Wind Speed 20 mph    
Max Gust Speed 25 mph    
Visibility 8 miles    
Events Rain    
Averages and records for this station are not official NWS values.
T = Trace of Precipitation, MM = Missing Value Source: NWS Daily Summary

Daily Weather History Graph

Daily Weather History Graph

Search for Another Location

Airport:

Trip Planner

Search our weather history database for the weather conditions in past years. The results will help you decide how hot, cold, wet, or windy it might be!

Date:

Astronomy

Jan. 15, 2013 Rise Set
Actual Time 6:44 AM CST 5:07 PM CST
Civil Twilight 6:18 AM CST 5:33 PM CST
Nautical Twilight 5:48 AM CST 6:02 PM CST
Astronomical Twilight 5:19 AM CST 6:31 PM CST
Moon 9:10 AM CST (1/15) 9:33 PM CST (1/15)
Length of Visible Light 11h 15m
Length of Day
10h 23m
Waxing Crescent, 19% of the Moon is Illuminated
Jan 15
Waxing Crescent
Jan 18
First Quarter
Jan 26
Full
Feb 3
Last Quarter
Feb 10
New

Hourly Weather History & Observations

Time (CST) Temp. Dew Point Humidity Pressure Visibility Wind Dir Wind Speed Gust Speed Precip Events Conditions
12:53 AM 70.0 °F 66.9 °F 90% 30.08 in 6.0 mi South 5.8 mph - N/A   Overcast
1:53 AM 69.1 °F 68.0 °F 96% 30.06 in 5.0 mi SSE 4.6 mph - 0.00 in   Overcast
2:53 AM 70.0 °F 66.9 °F 90% 30.05 in 9.0 mi SSE 5.8 mph - N/A   Overcast
3:41 AM 69.8 °F 66.2 °F 88% 30.05 in 8.0 mi South 5.8 mph - 0.00 in Rain Light Rain
3:53 AM 70.0 °F 66.9 °F 90% 30.04 in 8.0 mi South 6.9 mph - 0.00 in Rain Light Rain
4:46 AM 69.8 °F 68.0 °F 94% 30.05 in 8.0 mi South 4.6 mph - 0.00 in   Overcast
5:53 AM 71.1 °F 68.0 °F 90% 30.04 in 9.0 mi South 6.9 mph - N/A   Overcast
6:03 AM 71.6 °F 68.0 °F 88% 30.05 in 10.0 mi South 6.9 mph - N/A   Overcast
6:30 AM 71.6 °F 68.0 °F 88% 30.06 in 10.0 mi South 5.8 mph - N/A   Overcast
6:53 AM 71.1 °F 68.0 °F 90% 30.06 in 9.0 mi South 5.8 mph - N/A   Overcast
7:53 AM 71.1 °F 68.0 °F 90% 30.06 in 9.0 mi SSE 5.8 mph - N/A   Overcast
8:53 AM 72.0 °F 68.0 °F 87% 30.07 in 10.0 mi South 9.2 mph - N/A   Overcast
9:26 AM 73.4 °F 69.8 °F 88% 30.08 in 10.0 mi South 13.8 mph 18.4 mph N/A   Overcast
9:53 AM 73.0 °F 69.1 °F 87% 30.07 in 10.0 mi South 8.1 mph - 0.00 in Rain Light Rain
10:53 AM 75.0 °F 69.1 °F 82% 30.04 in 10.0 mi SSE 10.4 mph 18.4 mph 0.00 in   Overcast
11:53 AM 75.0 °F 68.0 °F 79% 30.02 in 10.0 mi South 11.5 mph 20.7 mph N/A   Overcast
12:53 PM 73.9 °F 68.0 °F 82% 30.01 in 10.0 mi South 8.1 mph 17.3 mph 0.00 in   Overcast
1:00 PM 73.4 °F 68.0 °F 83% 30.01 in 10.0 mi South 10.4 mph 18.4 mph 0.00 in Rain Light Rain
1:26 PM 71.6 °F 69.8 °F 94% 30.00 in 4.0 mi South 8.1 mph - 0.00 in Rain Rain
1:38 PM 71.6 °F 69.8 °F 94% 30.00 in 1.8 mi South 11.5 mph - 0.04 in Rain Heavy Rain
1:46 PM 71.6 °F 69.8 °F 94% 30.00 in 0.8 mi SSW 8.1 mph - 0.16 in Rain Heavy Rain
1:51 PM 71.6 °F 69.8 °F 94% 30.00 in 1.0 mi SSW 8.1 mph - 0.16 in Rain Heavy Rain
1:53 PM 71.1 °F 70.0 °F 96% 30.00 in 1.2 mi SSW 11.5 mph - 0.16 in Rain Rain
1:55 PM 71.6 °F 69.8 °F 94% 30.00 in 3.0 mi South 10.4 mph - 0.00 in Rain Light Rain
2:22 PM 71.6 °F 69.8 °F 94% 30.00 in 9.0 mi South 10.4 mph - 0.00 in   Overcast
2:53 PM 72.0 °F 69.1 °F 91% 30.00 in 9.0 mi South 9.2 mph - 0.00 in   Overcast
3:53 PM 72.0 °F 69.1 °F 91% 30.00 in 8.0 mi South 11.5 mph 19.6 mph 0.00 in Rain Light Rain
4:53 PM 72.0 °F 69.1 °F 91% 30.01 in 6.0 mi South 10.4 mph - 0.00 in   Overcast
5:53 PM 71.1 °F 69.1 °F 93% 30.01 in 8.0 mi SSW 4.6 mph - 0.00 in   Overcast
6:53 PM 71.1 °F 68.0 °F 90% 30.00 in 8.0 mi South 6.9 mph - N/A   Overcast
7:32 PM 71.6 °F 68.0 °F 88% 30.00 in 9.0 mi South 5.8 mph - 0.00 in   Overcast
7:53 PM 71.1 °F 68.0 °F 90% 29.99 in 9.0 mi South 8.1 mph - 0.00 in   Overcast
8:32 PM 71.6 °F 68.0 °F 88% 29.99 in 10.0 mi South 8.1 mph 16.1 mph N/A   Overcast
8:43 PM 71.6 °F 68.0 °F 88% 29.99 in 10.0 mi South 8.1 mph - N/A   Overcast
8:53 PM 71.1 °F 68.0 °F 90% 29.98 in 10.0 mi South 9.2 mph - N/A   Overcast
9:53 PM 71.1 °F 68.0 °F 90% 29.98 in 8.0 mi South 10.4 mph 19.6 mph 0.00 in Rain Light Rain
10:11 PM 71.6 °F 68.0 °F 88% 29.99 in 7.0 mi South 9.2 mph - 0.00 in Rain Light Rain
10:41 PM 69.8 °F 68.0 °F 94% 29.99 in 2.5 mi SSW 12.7 mph 20.7 mph 0.04 in Rain Rain
10:48 PM 69.8 °F 68.0 °F 94% 29.99 in 6.0 mi South 19.6 mph 25.3 mph 0.04 in Rain Light Rain
10:53 PM 70.0 °F 66.9 °F 90% 29.99 in 7.0 mi SSW 13.8 mph 25.3 mph 0.04 in Rain Light Rain
10:55 PM 69.8 °F 66.2 °F 88% 29.99 in 7.0 mi SSW 12.7 mph 25.3 mph 0.00 in Rain Light Rain
11:05 PM 69.8 °F 66.2 °F 88% 29.99 in 10.0 mi SSW 12.7 mph 20.7 mph 0.00 in Rain Light Rain
11:53 PM 68.0 °F 66.0 °F 93% 29.97 in 10.0 mi South 3.5 mph - 0.00 in   Overcast